Weather History for KSHV - January, 2013

Change the Weather History Date:

Wednesday, January 9, 2013

  Actual Average Record
Temperature  
Mean Temperature 58 °F 46 °F  
Max Temperature 60 °F 57 °F 81 °F (1957)
Min Temperature 55 °F 36 °F 3 °F (1886)
Degree Days  
Heating Degree Days 7 19  
Month to date heating degree days 180 171  
Since 1 July heating degree days 933 1073  
Cooling Degree Days 0 0  
Month to date cooling degree days 0 0  
Year to date cooling degree days 0 0  
Growing Degree Days 5 (Base 50)    
Moisture  
Dew Point 57 °F    
Average Humidity 95    
Maximum Humidity 100    
Minimum Humidity 90    
Precipitation  
Precipitation 1.70 in 0.13 in 2.84 in (1968)
Month to date precipitation 2.49 1.16  
Year to date precipitation 2.49 1.16  
Snow  
Snow 0.00 in - - ()
Month to date snowfall T  
Since 1 July snowfall T  
Snow Depth 0.00 in    
Sea Level Pressure  
Sea Level Pressure 30.10 in    
Wind  
Wind Speed 8 mph (ENE)    
Max Wind Speed 25 mph    
Max Gust Speed 33 mph    
Visibility 3 miles    
Events Fog , Rain , Thunderstorm    
T = Trace of Precipitation, MM = Missing Value Source: NWS Daily Summary

Daily Weather History Graph

Daily Weather History Graph

Search for Another Location

Airport or City:

Trip Planner

Search our weather history database for the weather conditions in past years. The results will help you decide how hot, cold, wet, or windy it might be!

Date:

Astronomy

Jan. 09, 2013 Rise Set
Actual Time 7:17 AM CST 5:27 PM CST
Civil Twilight 6:50 AM CST 5:54 PM CST
Nautical Twilight 6:20 AM CST 6:24 PM CST
Astronomical Twilight 5:50 AM CST 6:54 PM CST
Moon 4:57 AM CST (1/9) 3:30 PM CST (1/9)
Length of Visible Light 11h 03m
Length of Day
10h 09m
Waning Crescent, 6% of the Moon is Illuminated
Jan 9
Waning Crescent
Jan 11
New
Jan 18
First Quarter
Jan 26
Full
Feb 3
Last Quarter

Hourly Weather History & Observations

Time (CST) Temp. Dew Point Humidity Pressure Visibility Wind Dir Wind Speed Gust Speed Precip Events Conditions
12:14 AM 55.4 °F 55.4 °F 100% 30.06 in 1.0 mi East 5.8 mph - N/A Fog Patches of Fog
12:39 AM 55.4 °F 55.4 °F 100% 30.06 in 0.5 mi East 5.8 mph - N/A Fog Fog
12:56 AM 55.9 °F 55.9 °F 100% 30.07 in 0.5 mi ENE 3.5 mph - N/A Fog Fog
1:15 AM 55.4 °F 55.4 °F 100% 30.07 in 0.2 mi NE 4.6 mph - N/A Fog Fog
1:56 AM 55.9 °F 55.9 °F 100% 30.06 in 0.2 mi ENE 6.9 mph - N/A Fog Fog
2:03 AM 57.2 °F 55.4 °F 94% 30.05 in 0.5 mi NE 6.9 mph - N/A Fog Fog
2:56 AM 57.0 °F 57.0 °F 100% 30.06 in 0.5 mi NNE 6.9 mph - 0.01 in Fog Fog
3:56 AM 57.9 °F 57.0 °F 97% 30.06 in 0.5 mi ENE 9.2 mph - 0.01 in Fog Fog
4:56 AM 57.9 °F 57.9 °F 100% 30.08 in 0.5 mi ENE 8.1 mph - N/A Fog Fog
5:56 AM 57.0 °F 57.0 °F 100% 30.10 in 0.5 mi NE 9.2 mph - N/A Fog Fog
6:56 AM 57.2 °F 57.2 °F 100% 30.11 in 0.5 mi ENE 9.2 mph - N/A Fog , Rain Light Rain
7:26 AM 57.2 °F 57.2 °F 100% 30.12 in 1.0 mi ENE 6.9 mph - 0.06 in Rain Rain
7:56 AM 57.9 °F 57.0 °F 97% 30.13 in 1.5 mi ENE 8.1 mph - 0.15 in Rain Rain
8:18 AM 57.2 °F 57.2 °F 100% 30.14 in 1.5 mi ENE 9.2 mph - 0.07 in Rain Rain
8:44 AM 57.2 °F 57.2 °F 100% 30.14 in 1.5 mi ENE 9.2 mph - 0.14 in Rain Light Rain
8:56 AM 57.9 °F 57.9 °F 100% 30.14 in 1.0 mi ENE 13.8 mph - 0.21 in Rain Heavy Rain
9:19 AM 57.2 °F 57.2 °F 100% 30.15 in 1.0 mi ENE 12.7 mph - 0.05 in Rain Light Rain
9:41 AM 57.2 °F 57.2 °F 100% 30.16 in 3.0 mi SSE 13.8 mph - 0.06 in Rain Light Rain
9:56 AM 57.9 °F 57.9 °F 100% 30.16 in 3.0 mi ENE 9.2 mph - 0.07 in Rain Light Rain
10:20 AM 57.2 °F 57.2 °F 100% 30.17 in 1.0 mi East 6.9 mph - 0.17 in Rain Heavy Rain
10:56 AM 59.0 °F 57.9 °F 96% 30.15 in 2.0 mi ENE 6.9 mph - 0.36 in Rain Light Rain
11:56 AM 59.0 °F 57.9 °F 96% 30.12 in 2.0 mi ENE 11.5 mph - 0.12 in Rain Rain
12:40 PM 59.0 °F 57.2 °F 94% 30.09 in 3.0 mi ENE 11.5 mph - 0.03 in Rain Light Rain
12:56 PM 59.0 °F 57.9 °F 96% 30.08 in 3.0 mi ENE 11.5 mph - 0.04 in Rain Light Rain
1:56 PM 59.0 °F 57.9 °F 96% 30.07 in 3.0 mi NE 10.4 mph - 0.06 in Rain Light Rain
2:10 PM 59.0 °F 57.2 °F 94% 30.08 in 3.0 mi NE 11.5 mph - 0.01 in Rain Light Rain
2:56 PM 59.0 °F 57.9 °F 96% 30.10 in 6.0 mi NE 5.8 mph - 0.02 in Rain Light Rain
3:56 PM 59.0 °F 57.9 °F 96% 30.11 in 6.0 mi ENE 5.8 mph - 0.03 in Rain Rain
4:56 PM 59.0 °F 57.9 °F 96% 30.10 in 3.0 mi NNE 5.8 mph - 0.10 in Rain Rain
5:25 PM 59.0 °F 57.2 °F 94% 30.12 in 3.0 mi ENE 8.1 mph - 0.06 in Rain , Thunderstorm Thunderstorms and Rain
5:52 PM 59.0 °F 57.2 °F 94% 30.13 in 3.0 mi ENE 8.1 mph - 0.13 in Rain Rain
5:56 PM 59.0 °F 57.9 °F 96% 30.13 in 3.0 mi East 6.9 mph - 0.15 in Rain Rain
6:56 PM 57.9 °F 57.0 °F 97% 30.11 in 4.0 mi East 12.7 mph - 0.23 in Rain Heavy Rain
7:14 PM 57.2 °F 57.2 °F 100% 30.04 in 4.0 mi East 21.9 mph 33.4 mph 0.10 in Rain Heavy Rain
7:22 PM 57.2 °F 57.2 °F 100% 30.03 in 5.0 mi ENE 20.7 mph 32.2 mph 0.12 in Rain Rain
7:33 PM 59.0 °F 57.2 °F 94% 30.04 in 7.0 mi East 17.3 mph 31.1 mph 0.13 in Rain Light Rain
8:56 PM 60.1 °F 57.9 °F 93% 30.10 in 10.0 mi East 3.5 mph - 0.00 in Rain Light Rain
9:56 PM 60.1 °F 59.0 °F 96% 30.06 in 10.0 mi East 8.1 mph - 0.00 in   Overcast
10:56 PM 60.1 °F 57.9 °F 93% 30.05 in 10.0 mi East 11.5 mph - 0.00 in   Overcast
11:56 PM 60.8 °F 57.2 °F 88% 30.06 in 10.0 mi NE 4.6 mph - N/A   Overcast